sat.trackr.live / text

‹ back to catalog

STARLINK-4550

NORAD 53570 · 2022-101AV

PAYLOAD ACTIVE UNKNOWN

§ Identity

Operator
Country
US
Launch date
2022-08-19
Launch site
AFETR
Launch vehicle
Mass (kg)
RCS (m²)

Purposes: comms

External: N2YO · Heavens-Above · Gunter

§ Orbital elements

Epoch: 2026-05-25T04:16:41.379744Z

Period
95.44 min
Inclination
53.2146°
Eccentricity
0.0001343
Mean motion
15.08837883 rev/d
Perigee alt
538.8 km
Apogee alt
540.7 km
Semi-major
6,917.9 km
B*
9.4945e-5
RAAN
70.6583°
Arg perigee
69.6658°
Mean anomaly
290.4478°
Rev number
20,868

§ Raw data

STARLINK-45501 53570U 22101AV  26145.17825671  .00001223  00000+0  94945-4 0  99932 53570  53.2146  70.6583 0001343  69.6658 290.4478 15.08837883208682

JSON: /api/v1/satellites/53570 · /tle

For live sub-satellite position, see the globe view (requires WebGL).

§ Visibility from observer

Set your observer location to see the next 7 days of passes ≥ 10°. The values pass through the URL so the page stays shareable.

No JS? Fill the form by hand. The geolocation button needs JavaScript.